TimeEDT,TemperatureF,Dew PointF,Humidity,Sea Level PressureIn,VisibilityMPH,Wind Direction,Wind SpeedMPH,Gust SpeedMPH,PrecipitationIn,Events,Conditions,WindDirDegrees,DateUTC
12:15 AM,77.0,71.6,83,30.07,10.0,North,3.5,-,N/A,Thunderstorm,Clear,360,2013-08-20 04:15:00
12:35 AM,77.0,71.6,83,30.07,10.0,North,3.5,-,N/A,,Clear,350,2013-08-20 04:35:00
12:55 AM,77.0,71.6,83,30.07,10.0,North,3.5,-,N/A,,Clear,360,2013-08-20 04:55:00
1:15 AM,77.0,71.6,83,30.06,10.0,North,3.5,-,N/A,,Clear,10,2013-08-20 05:15:00
1:35 AM,77.0,71.6,83,30.06,7.0,NE,4.6,-,N/A,,Clear,40,2013-08-20 05:35:00
1:55 AM,75.2,71.6,89,30.05,7.0,Calm,Calm,-,N/A,,Clear,0,2013-08-20 05:55:00
2:15 AM,75.2,71.6,89,30.04,7.0,Calm,Calm,-,N/A,,Clear,0,2013-08-20 06:15:00
2:35 AM,73.4,71.6,94,30.04,7.0,Calm,Calm,-,N/A,,Clear,0,2013-08-20 06:35:00
2:55 AM,73.4,71.6,94,30.04,7.0,Calm,Calm,-,N/A,,Clear,0,2013-08-20 06:55:00
3:15 AM,73.4,71.6,94,30.04,10.0,Calm,Calm,-,N/A,,Clear,0,2013-08-20 07:15:00
3:35 AM,73.4,71.6,94,30.04,7.0,Calm,Calm,-,N/A,,Clear,0,2013-08-20 07:35:00
3:55 AM,73.4,71.6,94,30.05,7.0,Calm,Calm,-,N/A,,Clear,0,2013-08-20 07:55:00
4:15 AM,73.4,71.6,94,30.04,10.0,Calm,Calm,-,N/A,,Clear,0,2013-08-20 08:15:00
4:35 AM,73.4,71.6,94,30.03,7.0,Calm,Calm,-,N/A,,Clear,0,2013-08-20 08:35:00
4:55 AM,73.4,71.6,94,30.03,7.0,Calm,Calm,-,N/A,,Clear,0,2013-08-20 08:55:00
5:15 AM,73.4,71.6,94,30.03,10.0,Calm,Calm,-,N/A,,Clear,0,2013-08-20 09:15:00
5:35 AM,73.4,71.6,94,30.03,10.0,Calm,Calm,-,N/A,,Clear,0,2013-08-20 09:35:00
5:55 AM,73.4,71.6,94,30.03,7.0,Calm,Calm,-,N/A,,Clear,0,2013-08-20 09:55:00
6:15 AM,73.4,71.6,94,30.03,10.0,Calm,Calm,-,N/A,,Clear,0,2013-08-20 10:15:00
6:35 AM,73.4,71.6,94,30.03,10.0,Calm,Calm,-,N/A,,Clear,0,2013-08-20 10:35:00
6:55 AM,73.4,71.6,94,30.04,7.0,Calm,Calm,-,N/A,,Clear,0,2013-08-20 10:55:00
7:15 AM,73.4,71.6,94,30.04,7.0,Calm,Calm,-,N/A,,Clear,0,2013-08-20 11:15:00
7:35 AM,73.4,73.4,100,30.05,5.0,Calm,Calm,-,N/A,,Clear,0,2013-08-20 11:35:00
7:55 AM,73.4,73.4,100,30.05,5.0,Calm,Calm,-,N/A,,Clear,0,2013-08-20 11:55:00
8:15 AM,77.0,75.2,94,30.05,7.0,Calm,Calm,-,N/A,,Clear,0,2013-08-20 12:15:00
8:35 AM,78.8,75.2,89,30.06,5.0,Calm,Calm,-,N/A,,Clear,0,2013-08-20 12:35:00
8:55 AM,80.6,77.0,89,30.07,5.0,SE,3.5,-,N/A,,Clear,130,2013-08-20 12:55:00
9:15 AM,82.4,77.0,84,30.07,5.0,SE,4.6,-,N/A,,Haze,130,2013-08-20 13:15:00
9:35 AM,82.4,77.0,84,30.09,7.0,SE,8.1,-,N/A,,Scattered Clouds,130,2013-08-20 13:35:00
9:55 AM,84.2,73.4,70,30.09,4.0,ESE,6.9,-,N/A,,Haze,120,2013-08-20 13:55:00
10:15 AM,84.2,75.2,74,30.10,7.0,SE,8.1,-,N/A,,Scattered Clouds,130,2013-08-20 14:15:00
10:35 AM,86.0,73.4,66,30.10,7.0,ESE,6.9,-,N/A,,Scattered Clouds,120,2013-08-20 14:35:00
10:55 AM,87.8,75.2,66,30.11,7.0,ESE,6.9,-,N/A,,Scattered Clouds,110,2013-08-20 14:55:00
11:15 AM,87.8,73.4,62,30.10,7.0,SSE,5.8,-,N/A,,Scattered Clouds,160,2013-08-20 15:15:00
11:35 AM,87.8,73.4,62,30.10,7.0,SSE,4.6,-,N/A,,Mostly Cloudy,150,2013-08-20 15:35:00
11:55 AM,89.6,73.4,59,30.10,4.0,ESE,4.6,-,N/A,,Haze,110,2013-08-20 15:55:00
12:15 PM,89.6,71.6,55,30.10,7.0,East,5.8,-,N/A,,Scattered Clouds,80,2013-08-20 16:15:00
12:35 PM,89.6,71.6,55,30.10,7.0,East,3.5,-,N/A,,Scattered Clouds,90,2013-08-20 16:35:00
12:55 PM,91.4,71.6,52,30.09,10.0,ESE,5.8,-,N/A,,Scattered Clouds,110,2013-08-20 16:55:00
1:15 PM,91.4,69.8,49,30.09,10.0,ESE,6.9,-,N/A,,Scattered Clouds,120,2013-08-20 17:15:00
1:35 PM,91.4,71.6,52,30.08,7.0,East,4.6,-,N/A,,Scattered Clouds,100,2013-08-20 17:35:00
1:55 PM,91.4,71.6,52,30.08,7.0,East,4.6,-,N/A,,Scattered Clouds,90,2013-08-20 17:55:00
2:15 PM,91.4,71.6,52,30.07,7.0,East,8.1,-,N/A,,Scattered Clouds,100,2013-08-20 18:15:00
2:35 PM,91.4,71.6,52,30.06,7.0,Calm,Calm,-,N/A,,Scattered Clouds,0,2013-08-20 18:35:00
2:55 PM,91.4,71.6,52,30.05,7.0,SE,4.6,-,N/A,,Scattered Clouds,130,2013-08-20 18:55:00
3:15 PM,91.4,71.6,52,30.03,7.0,SE,3.5,-,N/A,,Mostly Cloudy,140,2013-08-20 19:15:00
3:35 PM,93.2,71.6,49,30.03,10.0,ENE,9.2,-,N/A,,Mostly Cloudy,60,2013-08-20 19:35:00
3:55 PM,91.4,69.8,49,30.02,7.0,East,4.6,-,N/A,,Scattered Clouds,100,2013-08-20 19:55:00
4:15 PM,93.2,71.6,49,30.01,7.0,East,5.8,-,N/A,,Scattered Clouds,80,2013-08-20 20:15:00
4:35 PM,91.4,69.8,49,30.00,7.0,ESE,5.8,-,N/A,Thunderstorm,Mostly Cloudy,120,2013-08-20 20:35:00
4:55 PM,87.8,71.6,58,30.01,10.0,SSW,8.1,-,N/A,Thunderstorm,Thunderstorm,200,2013-08-20 20:55:00
5:15 PM,82.4,71.6,70,30.01,7.0,Calm,Calm,-,N/A,Thunderstorm,Thunderstorm,0,2013-08-20 21:15:00
5:35 PM,77.0,71.6,83,30.03,7.0,SSW,12.7,23.0,0.01,Rain-Thunderstorm,Thunderstorms and Rain,210,2013-08-20 21:35:00
5:55 PM,77.0,71.6,83,30.03,10.0,Calm,Calm,-,0.01,Thunderstorm,Thunderstorm,0,2013-08-20 21:55:00
6:15 PM,77.0,71.6,83,30.04,10.0,Calm,Calm,-,N/A,Rain-Thunderstorm,Light Thunderstorms and Rain,0,2013-08-20 22:15:00
6:35 PM,77.0,73.4,89,30.04,10.0,NNE,3.5,-,0.02,Rain-Thunderstorm,Light Thunderstorms and Rain,20,2013-08-20 22:35:00
6:55 PM,75.2,73.4,94,30.06,10.0,NNE,4.6,-,0.02,Rain-Thunderstorm,Light Thunderstorms and Rain,30,2013-08-20 22:55:00
7:15 PM,75.2,73.4,94,30.07,7.0,Calm,Calm,-,N/A,Thunderstorm,Scattered Clouds,0,2013-08-20 23:15:00
7:35 PM,75.2,73.4,94,30.07,5.0,Calm,Calm,-,N/A,Thunderstorm,Mostly Cloudy,0,2013-08-20 23:35:00
7:55 PM,75.2,73.4,94,30.09,4.0,West,3.5,-,0.03,Rain,Rain,270,2013-08-20 23:55:00
8:15 PM,75.2,73.4,94,30.08,7.0,Calm,Calm,-,0.02,Thunderstorm,Mostly Cloudy,0,2013-08-21 00:15:00
8:35 PM,75.2,73.4,94,30.10,7.0,Calm,Calm,-,0.03,,Mostly Cloudy,0,2013-08-21 00:35:00
8:55 PM,75.2,73.4,94,30.10,7.0,NNW,3.5,-,0.03,,Overcast,340,2013-08-21 00:55:00
9:15 PM,75.2,73.4,94,30.11,5.0,Calm,Calm,-,0.01,Rain,Light Rain,0,2013-08-21 01:15:00
9:35 PM,75.2,73.4,94,30.11,7.0,North,6.9,-,0.02,,Scattered Clouds,360,2013-08-21 01:35:00
9:55 PM,75.2,73.4,94,30.11,5.0,NNE,6.9,-,0.03,,Scattered Clouds,20,2013-08-21 01:55:00
10:15 PM,73.4,73.4,100,30.11,7.0,NNE,4.6,-,N/A,,Scattered Clouds,30,2013-08-21 02:15:00
10:35 PM,73.4,73.4,100,30.12,7.0,NE,6.9,-,N/A,,Scattered Clouds,40,2013-08-21 02:35:00
10:55 PM,73.4,73.4,100,30.13,7.0,NE,6.9,-,N/A,,Scattered Clouds,40,2013-08-21 02:55:00
11:15 PM,73.4,71.6,94,30.13,7.0,NNE,4.6,-,N/A,,Scattered Clouds,30,2013-08-21 03:15:00
11:35 PM,73.4,71.6,94,30.13,7.0,NNE,3.5,-,N/A,,Clear,20,2013-08-21 03:35:00
11:55 PM,71.6,71.6,100,30.12,10.0,NE,3.5,-,N/A,,Clear,50,2013-08-21 03:55:00